Flag for China Weather past 2 weeks in Kunming, Yunnan, China

Now
64 °F

Partly sunny.


Feels Like: 64 °F
Forecast: 49 / 70 °F
Wind: 15 mph from Southwest

Location: Kunming Airport

Current Time: Mar 27, 2015 at 3:51:27 PM

Latest Report: Mar 27, 2015 at 3:00 PM


Visibility: N/A

Pressure: 30.27 "Hg

Humidity: 49%

Dew point: 45 °F

Location of KunmingLocation

Historic Weather in Kunming — Graph

°F

Kunming temperature yesterday

Maximum temperature yesterday: 66 °F (at 3:00 PM)
Minimum temperature yesterday: 50 °F (at 4:00 AM)
Average temperature yesterday: 57 °F

Past Weeks' High & Low Weather Summary

 TemperatureHumidityPressure
High77 °F (Mar 13, 4:00 PM)100% (Mar 22, 6:00 AM)30.42 "Hg (Mar 22, 6:00 AM)
Low45 °F (Mar 21, 7:00 AM)10% (Mar 12, 3:00 PM)29.92 "Hg (Mar 17, 4:00 PM)
Average61 °F48%30.18 "Hg
* Reported Mar 12 2:00 PM — Mar 27 2:00 PM, Kunming, Weather by CustomWeather, © 2015

Note: Actual official high and low records may vary slightly from our data, if they occured in-between our weather recording intervals... More about our weather records

Advertising

Kunming weather history for previous 24 hours

 ConditionsComfort  
Time TempWeatherWind HumidityBarometerVisibility
2:00 PM
Fri, Mar 27
63 °FBroken clouds.10 mph56%30.30 "HgN/A
1:00 PM63 °FBroken clouds.13 mph52%30.33 "HgN/A
12:00 PM61 °FBroken clouds.10 mph59%30.36 "HgN/A
11:00 AM59 °FBroken clouds.15 mph63%30.39 "HgN/A
10:00 AM55 °FBroken clouds.13 mph77%30.39 "HgN/A
9:00 AM52 °FScattered clouds.10 mph88%30.39 "HgN/A
8:00 AM50 °FScattered clouds.8 mph88%30.36 "HgN/A
7:00 AM48 °FPassing clouds.10 mph94%30.36 "HgN/A
6:00 AM50 °FPassing clouds.10 mph88%30.33 "HgN/A
5:00 AM48 °FPassing clouds.6 mph94%30.33 "HgN/A
4:00 AM48 °FPassing clouds.3 mph100%30.33 "HgN/A
3:00 AM48 °FClear.1 mph94%30.36 "Hg10 mi
2:00 AM50 °FClear.1 mph88%30.39 "Hg10 mi
1:00 AM52 °FClear.1 mph82%30.39 "Hg10 mi
12:00 AM54 °FClear.3 mph77%30.39 "Hg10 mi
11:00 PM
Thu, Mar 26
54 °FPassing clouds.1 mph77%30.39 "HgN/A
10:00 PM54 °FPassing clouds.3 mph72%30.36 "HgN/A
9:00 PM59 °FPassing clouds.8 mph59%30.33 "HgN/A
8:00 PM59 °FClear.13 mph63%30.30 "Hg10 mi
7:00 PM63 °FSunny.13 mph52%30.27 "Hg10 mi
6:00 PM66 °FPassing clouds.10 mph46%30.27 "HgN/A
5:00 PM66 °FScattered clouds.10 mph46%30.27 "HgN/A
4:00 PM66 °FScattered clouds.15 mph49%30.27 "HgN/A
3:00 PM66 °FScattered clouds.10 mph49%30.30 "HgN/A
Weather by CustomWeather, © 2015

See weather overviewHow to use our weather pages